Terminal Aerodrome Forecast
Issued by NWS

Home | Current Version | Previous Version | Text Only | Print | Product List | Glossary On
Versions: 1 2 3 4 5 6 7 8 9 10 11 12 13 14 15
000
FTUS43 KPAH 141100
TAFCGI
TAF
KCGI 141120Z 1412/1512 23010KT P6SM SCT015 BKN150
      TEMPO 1412/1415 BKN015
     FM141500 32012G20KT P6SM BKN020
     FM142000 34015G25KT 4SM -RA BR OVC015
     FM150400 33013G20KT P6SM BKN020
     FM150800 32010KT P6SM SKC=

USA.gov is the U.S. government's official web portal to all federal, state and local government web resources and services.